Location: Gand�
(15.0971°N, 12.6564°W)
Time: 14:12:53
(UTC+00:00)

Meteor 2-10 Rocket - Pass Details

Date: 07 August 2020
Orbit: 734 x 884 km, 81.2° (Epoch: 19 September)

Event Time Altitude Azimuth Distance (km) Brightness Sun altitude
Rises 05:37:08 0° 174° (S) 3,150 6.5 -14.0°
Reaches altitude 10° 05:39:30 10° 169° (S) 2,232 5.8 -13.4°
Maximum altitude 05:44:19 50° 94° (E) 938 4.4 -12.3°
Drops below altitude 10° 05:49:14 10° 19° (NNE) 2,283 6.5 -11.2°
Sets 05:51:40 0° 14° (NNE) 3,229 7.3 -10.7°
